This is the latest recevied weather packets stored in our database for station/object K3XY-2. If no packets are shown the sender has not sent any weather packets the latest 10 day(s).
| Time | Temp. | Humidity | Pressure | Rain* | Wind** | Luminosity | Snow |
|---|---|---|---|---|---|---|---|
| 1777839545 | 15° C | 40% | 1011.8 hPa | 0 mm | - | - | - |
| 1777838945 | 15° C | 37% | 1011.8 hPa | 0 mm | - | - | - |
| 1777838345 | 15° C | 42% | 1012 hPa | 0 mm | - | - | - |
| 1777837745 | 15° C | 43% | 1012.1 hPa | 0 mm | - | - | - |
| 1777837145 | 14.44° C | 40% | 1012.2 hPa | 0 mm | - | - | - |
| 1777836545 | 15° C | 38% | 1012.2 hPa | 0 mm | - | - | - |
| 1777835945 | 13.89° C | 41% | 1012.3 hPa | 0 mm | - | - | - |
| 1777835345 | 13.89° C | 37% | 1012.5 hPa | 0 mm | - | - | - |
| 1777834745 | 14.44° C | 38% | 1012.9 hPa | 0 mm | - | - | - |
| 1777834145 | 14.44° C | 39% | 1012.9 hPa | 0 mm | - | - | - |
| 1777833545 | 13.89° C | 40% | 1013.1 hPa | 0 mm | - | - | - |
| 1777832944 | 14.44° C | 40% | 1013 hPa | 0 mm | - | - | - |
| 1777832345 | 14.44° C | 44% | 1013 hPa | 0 mm | - | - | - |
| 1777831745 | 13.89° C | 41% | 1013.2 hPa | 0 mm | - | - | - |
| 1777831145 | 13.89° C | 37% | 1013.2 hPa | 0 mm | - | - | - |
| 1777830544 | 14.44° C | 42% | 1013.1 hPa | 0 mm | - | - | - |
| 1777829945 | 13.33° C | 39% | 1013.2 hPa | 0 mm | - | - | - |
| 1777829345 | 12.78° C | 38% | 1013.3 hPa | 0 mm | - | - | - |
| 1777828744 | 12.78° C | 38% | 1013.5 hPa | 0 mm | - | - | - |
| 1777828145 | 12.78° C | 42% | 1013.5 hPa | 0 mm | - | - | - |
| 1777827545 | 12.78° C | 39% | 1013.7 hPa | 0 mm | - | - | - |
| 1777826944 | 13.33° C | 42% | 1013.6 hPa | 0 mm | - | - | - |
| 1777826344 | 12.78° C | 45% | 1013.7 hPa | 0 mm | - | - | - |
| 1777825745 | 12.22° C | 42% | 1013.8 hPa | 0 mm | - | - | - |
| 1777825145 | 12.22° C | 43% | 1014 hPa | 0 mm | - | - | - |
* Rain latest hour (hover to see other rain measurements)
** Current wind speed in m/s (hover to see current wind gust speed)